Time,TemperatureF,DewpointF,PressureIn,WindDirection,WindDirectionDegrees,WindSpeedMPH,WindSpeedGustMPH,Humidity,HourlyPrecipIn,Conditions,Clouds,dailyrainin,SoftwareType,DateUTC
2013-09-15 00:00:00,68.5,66.7,30.05,North,11,0.0,0.0,94,0.00,,,0.00,VWS V14.00,2013-09-15 04:00:00,
2013-09-15 00:01:00,68.5,66.7,30.05,North,11,0.0,0.0,94,0.00,,,0.00,VWS V14.00,2013-09-15 04:01:00,
2013-09-15 00:03:00,68.5,66.7,30.05,North,11,0.0,0.0,94,0.00,,,0.00,VWS V14.00,2013-09-15 04:03:00,
2013-09-15 00:04:00,68.5,66.7,30.05,North,11,0.0,0.0,94,0.00,,,0.00,VWS V14.00,2013-09-15 04:04:00,
2013-09-15 00:08:00,68.4,66.6,30.05,North,11,0.0,0.0,94,0.00,,,0.00,VWS V14.00,2013-09-15 04:08:00,
2013-09-15 00:13:00,68.3,66.5,30.05,North,11,0.0,0.0,94,0.00,,,0.00,VWS V14.00,2013-09-15 04:13:00,
2013-09-15 00:14:00,68.3,66.5,30.05,North,11,0.0,0.0,94,0.00,,,0.00,VWS V14.00,2013-09-15 04:14:00,
2013-09-15 00:19:00,68.4,66.9,30.05,North,11,1.0,2.0,95,0.00,,,0.00,VWS V14.00,2013-09-15 04:19:00,
2013-09-15 00:24:00,68.6,67.1,30.05,North,11,1.0,2.0,95,0.00,,,0.00,VWS V14.00,2013-09-15 04:24:00,
2013-09-15 00:29:00,68.8,67.0,30.05,North,11,0.0,2.0,94,0.00,,,0.00,VWS V14.00,2013-09-15 04:29:00,
2013-09-15 00:34:00,68.8,67.0,30.05,North,11,0.0,1.0,94,0.00,,,0.00,VWS V14.00,2013-09-15 04:34:00,
2013-09-15 00:39:00,68.9,67.1,30.05,North,11,0.0,1.0,94,0.00,,,0.00,VWS V14.00,2013-09-15 04:39:00,
2013-09-15 00:44:00,69.0,67.2,30.05,North,11,0.0,2.0,94,0.00,,,0.00,VWS V14.00,2013-09-15 04:44:00,
2013-09-15 00:50:00,69.0,67.2,30.05,North,11,0.0,2.0,94,0.00,,,0.00,VWS V14.00,2013-09-15 04:50:00,
2013-09-15 00:55:00,69.0,67.2,30.05,North,11,1.0,1.0,94,0.00,,,0.00,VWS V14.00,2013-09-15 04:55:00,
2013-09-15 01:00:00,69.0,67.2,30.05,North,11,0.0,1.0,94,0.00,,,0.00,VWS V14.00,2013-09-15 05:00:00,
2013-09-15 01:05:00,69.0,67.2,30.05,North,11,0.0,1.0,94,0.00,,,0.00,VWS V14.00,2013-09-15 05:05:00,
2013-09-15 01:10:00,68.9,67.1,30.05,North,11,0.0,1.0,94,0.00,,,0.00,VWS V14.00,2013-09-15 05:10:00,
2013-09-15 01:15:00,68.7,66.9,30.05,North,11,0.0,0.0,94,0.00,,,0.00,VWS V14.00,2013-09-15 05:15:00,
2013-09-15 01:20:00,68.8,67.3,30.05,North,11,0.0,0.0,95,0.00,,,0.00,VWS V14.00,2013-09-15 05:20:00,
2013-09-15 01:25:00,68.8,67.3,30.06,North,11,0.0,1.0,95,0.00,,,0.00,VWS V14.00,2013-09-15 05:25:00,
2013-09-15 01:30:00,68.6,67.1,30.06,North,11,0.0,1.0,95,0.00,,,0.00,VWS V14.00,2013-09-15 05:30:00,
2013-09-15 01:35:00,68.3,66.8,30.06,North,11,0.0,1.0,95,0.00,,,0.00,VWS V14.00,2013-09-15 05:35:00,
2013-09-15 01:40:00,68.1,66.6,30.06,North,11,0.0,1.0,95,0.00,,,0.00,VWS V14.00,2013-09-15 05:40:00,
2013-09-15 01:46:00,68.0,66.5,30.06,North,11,0.0,0.0,95,0.00,,,0.00,VWS V14.00,2013-09-15 05:46:00,
2013-09-15 01:51:00,68.0,66.8,30.06,North,11,0.0,1.0,96,0.00,,,0.00,VWS V14.00,2013-09-15 05:51:00,
2013-09-15 01:56:00,68.0,66.8,30.06,North,11,0.0,1.0,96,0.00,,,0.00,VWS V14.00,2013-09-15 05:56:00,
2013-09-15 02:01:00,68.1,66.9,30.06,North,11,0.0,1.0,96,0.00,,,0.00,VWS V14.00,2013-09-15 06:01:00,
2013-09-15 02:06:00,68.1,66.9,30.06,NNE,15,1.0,1.0,96,0.00,,,0.00,VWS V14.00,2013-09-15 06:06:00,
2013-09-15 02:11:00,68.2,67.0,30.06,NNE,15,0.0,2.0,96,0.00,,,0.00,VWS V14.00,2013-09-15 06:11:00,
2013-09-15 02:16:00,68.2,67.0,30.06,NNE,16,0.0,2.0,96,0.00,,,0.00,VWS V14.00,2013-09-15 06:16:00,
2013-09-15 02:21:00,68.2,67.0,30.06,NE,53,0.0,1.0,96,0.00,,,0.00,VWS V14.00,2013-09-15 06:21:00,
2013-09-15 02:26:00,68.2,67.0,30.06,NE,53,1.0,2.0,96,0.00,,,0.00,VWS V14.00,2013-09-15 06:26:00,
2013-09-15 02:31:00,68.2,67.0,30.06,NE,53,0.0,0.0,96,0.00,,,0.00,VWS V14.00,2013-09-15 06:31:00,
2013-09-15 02:36:00,68.3,67.1,30.06,NE,53,0.0,1.0,96,0.00,,,0.00,VWS V14.00,2013-09-15 06:36:00,
2013-09-15 02:42:00,68.2,67.0,30.06,NE,53,0.0,0.0,96,0.00,,,0.00,VWS V14.00,2013-09-15 06:42:00,
2013-09-15 02:47:00,68.0,66.5,30.06,NE,53,0.0,0.0,95,0.00,,,0.00,VWS V14.00,2013-09-15 06:47:00,
2013-09-15 02:52:00,68.0,66.8,30.06,NE,53,0.0,0.0,96,0.00,,,0.00,VWS V14.00,2013-09-15 06:52:00,
2013-09-15 02:57:00,68.0,66.8,30.06,NE,53,0.0,1.0,96,0.00,,,0.00,VWS V14.00,2013-09-15 06:57:00,
2013-09-15 03:02:00,68.1,66.9,30.06,NE,53,0.0,0.0,96,0.00,,,0.00,VWS V14.00,2013-09-15 07:02:00,
2013-09-15 03:07:00,67.9,66.7,30.06,NE,53,0.0,0.0,96,0.00,,,0.00,VWS V14.00,2013-09-15 07:07:00,
2013-09-15 03:12:00,67.6,66.4,30.06,NE,53,0.0,0.0,96,0.00,,,0.00,VWS V14.00,2013-09-15 07:12:00,
2013-09-15 03:17:00,67.5,66.3,30.06,NE,53,0.0,0.0,96,0.00,,,0.00,VWS V14.00,2013-09-15 07:17:00,
2013-09-15 03:22:00,67.5,66.3,30.07,NE,53,0.0,0.0,96,0.00,,,0.00,VWS V14.00,2013-09-15 07:22:00,
2013-09-15 03:27:00,67.5,66.3,30.07,NE,53,0.0,0.0,96,0.00,,,0.00,VWS V14.00,2013-09-15 07:27:00,
2013-09-15 03:32:00,67.6,66.7,30.07,NE,53,0.0,0.0,97,0.00,,,0.00,VWS V14.00,2013-09-15 07:32:00,
2013-09-15 03:38:00,67.6,66.7,30.07,NE,53,0.0,0.0,97,0.00,,,0.00,VWS V14.00,2013-09-15 07:38:00,
2013-09-15 03:43:00,67.7,66.8,30.07,NE,53,0.0,0.0,97,0.00,,,0.00,VWS V14.00,2013-09-15 07:43:00,
2013-09-15 03:48:00,67.7,66.8,30.07,NE,53,0.0,0.0,97,0.00,,,0.00,VWS V14.00,2013-09-15 07:48:00,
2013-09-15 03:53:00,67.6,66.7,30.07,NE,53,0.0,0.0,97,0.00,,,0.00,VWS V14.00,2013-09-15 07:53:00,
2013-09-15 03:58:00,67.6,66.7,30.07,NE,53,0.0,0.0,97,0.00,,,0.00,VWS V14.00,2013-09-15 07:58:00,
2013-09-15 04:03:00,67.5,66.6,30.07,NE,53,0.0,1.0,97,0.00,,,0.00,VWS V14.00,2013-09-15 08:03:00,
2013-09-15 04:08:00,67.4,66.5,30.07,NE,53,1.0,1.0,97,0.00,,,0.00,VWS V14.00,2013-09-15 08:08:00,
2013-09-15 04:13:00,67.4,66.5,30.07,NE,53,1.0,1.0,97,0.00,,,0.00,VWS V14.00,2013-09-15 08:13:00,
2013-09-15 04:18:00,67.3,66.4,30.07,NE,53,0.0,2.0,97,0.00,,,0.00,VWS V14.00,2013-09-15 08:18:00,
2013-09-15 04:23:00,67.3,66.4,30.07,NE,53,0.0,2.0,97,0.00,,,0.00,VWS V14.00,2013-09-15 08:23:00,
2013-09-15 04:28:00,67.4,66.5,30.07,NE,53,0.0,2.0,97,0.00,,,0.00,VWS V14.00,2013-09-15 08:28:00,
2013-09-15 04:34:00,67.4,66.5,30.07,NE,53,1.0,1.0,97,0.00,,,0.00,VWS V14.00,2013-09-15 08:34:00,
2013-09-15 04:39:00,67.5,66.6,30.07,NE,53,0.0,2.0,97,0.00,,,0.00,VWS V14.00,2013-09-15 08:39:00,
2013-09-15 04:44:00,67.5,66.6,30.07,NE,53,1.0,2.0,97,0.00,,,0.00,VWS V14.00,2013-09-15 08:44:00,
2013-09-15 04:49:00,67.5,66.6,30.07,NE,53,0.0,2.0,97,0.00,,,0.00,VWS V14.00,2013-09-15 08:49:00,
2013-09-15 04:54:00,67.5,66.6,30.08,NE,53,0.0,2.0,97,0.00,,,0.00,VWS V14.00,2013-09-15 08:54:00,
2013-09-15 04:59:00,67.5,66.6,30.08,NE,53,1.0,2.0,97,0.00,,,0.00,VWS V14.00,2013-09-15 08:59:00,
2013-09-15 05:04:00,67.5,66.3,30.08,NE,53,1.0,2.0,96,0.00,,,0.00,VWS V14.00,2013-09-15 09:04:00,
2013-09-15 05:09:00,67.4,66.2,30.08,NE,53,0.0,2.0,96,0.00,,,0.00,VWS V14.00,2013-09-15 09:09:00,
2013-09-15 05:14:00,67.4,66.2,30.08,NE,53,0.0,2.0,96,0.00,,,0.00,VWS V14.00,2013-09-15 09:14:00,
2013-09-15 05:19:00,67.4,66.2,30.08,NE,53,0.0,2.0,96,0.00,,,0.00,VWS V14.00,2013-09-15 09:19:00,
2013-09-15 05:24:00,67.4,66.5,30.09,NE,53,0.0,2.0,97,0.00,,,0.00,VWS V14.00,2013-09-15 09:24:00,
2013-09-15 05:30:00,67.4,66.2,30.08,NE,53,1.0,2.0,96,0.00,,,0.00,VWS V14.00,2013-09-15 09:30:00,
2013-09-15 05:35:00,67.4,66.2,30.08,NE,53,2.0,2.0,96,0.00,,,0.00,VWS V14.00,2013-09-15 09:35:00,
2013-09-15 05:40:00,67.4,66.2,30.09,NE,53,2.0,2.0,96,0.00,,,0.00,VWS V14.00,2013-09-15 09:40:00,
2013-09-15 05:45:00,67.4,66.2,30.09,ENE,68,1.0,3.0,96,0.00,,,0.00,VWS V14.00,2013-09-15 09:45:00,
2013-09-15 05:50:00,67.3,66.1,30.09,ENE,68,1.0,3.0,96,0.00,,,0.00,VWS V14.00,2013-09-15 09:50:00,
2013-09-15 05:55:00,67.3,66.1,30.09,ENE,68,0.0,2.0,96,0.00,,,0.00,VWS V14.00,2013-09-15 09:55:00,
2013-09-15 06:00:00,67.3,66.1,30.09,ENE,68,0.0,3.0,96,0.00,,,0.00,VWS V14.00,2013-09-15 10:00:00,
2013-09-15 06:05:00,67.2,66.0,30.09,ENE,68,1.0,2.0,96,0.00,,,0.00,VWS V14.00,2013-09-15 10:05:00,
2013-09-15 06:10:00,67.2,66.0,30.09,ENE,68,1.0,2.0,96,0.00,,,0.00,VWS V14.00,2013-09-15 10:10:00,
2013-09-15 06:16:00,67.2,66.3,30.09,ENE,68,0.0,2.0,97,0.00,,,0.00,VWS V14.00,2013-09-15 10:16:00,
2013-09-15 06:21:00,67.2,66.0,30.09,ENE,68,1.0,3.0,96,0.00,,,0.00,VWS V14.00,2013-09-15 10:21:00,
2013-09-15 06:26:00,67.1,66.2,30.09,ENE,68,2.0,3.0,97,0.00,,,0.00,VWS V14.00,2013-09-15 10:26:00,
2013-09-15 06:31:00,67.1,66.2,30.09,ENE,68,0.0,3.0,97,0.00,,,0.00,VWS V14.00,2013-09-15 10:31:00,
2013-09-15 06:36:00,67.2,66.3,30.10,ENE,68,0.0,1.0,97,0.00,,,0.00,VWS V14.00,2013-09-15 10:36:00,
2013-09-15 06:41:00,67.1,66.2,30.09,ENE,68,1.0,2.0,97,0.00,,,0.00,VWS V14.00,2013-09-15 10:41:00,
2013-09-15 06:46:00,67.1,66.2,30.10,ENE,68,1.0,2.0,97,0.00,,,0.00,VWS V14.00,2013-09-15 10:46:00,
2013-09-15 06:53:00,67.1,66.2,30.10,ENE,68,0.0,0.0,97,0.00,,,0.00,VWS V14.00,2013-09-15 10:53:00,
2013-09-15 06:58:00,67.1,66.2,30.10,ENE,68,0.0,2.0,97,0.00,,,0.00,VWS V14.00,2013-09-15 10:58:00,
2013-09-15 07:03:00,67.0,66.1,30.10,ENE,68,1.0,1.0,97,0.00,,,0.00,VWS V14.00,2013-09-15 11:03:00,
2013-09-15 07:09:00,67.0,66.1,30.11,ENE,68,0.0,2.0,97,0.00,,,0.00,VWS V14.00,2013-09-15 11:09:00,
2013-09-15 07:14:00,67.0,65.8,30.11,ENE,68,0.0,1.0,96,0.00,,,0.00,VWS V14.00,2013-09-15 11:14:00,
2013-09-15 07:19:00,67.0,65.8,30.11,ENE,68,1.0,2.0,96,0.00,,,0.00,VWS V14.00,2013-09-15 11:19:00,
2013-09-15 07:24:00,67.0,65.8,30.11,ENE,68,1.0,1.0,96,0.00,,,0.00,VWS V14.00,2013-09-15 11:24:00,
2013-09-15 07:29:00,67.1,65.9,30.11,ENE,61,2.0,3.0,96,0.00,,,0.00,VWS V14.00,2013-09-15 11:29:00,
2013-09-15 13:30:00,80.7,73.6,30.14,NE,45,2.0,5.0,79,0.00,,,0.00,VWS V14.00,2013-09-15 17:30:00,
2013-09-15 13:47:00,80.9,73.0,30.14,NE,36,0.0,2.0,77,0.00,,,0.00,VWS V14.00,2013-09-15 17:47:00,
2013-09-15 13:53:00,80.7,73.2,30.13,ESE,123,3.0,5.0,78,0.00,,,0.00,VWS V14.00,2013-09-15 17:53:00,
2013-09-15 13:58:00,80.8,73.3,30.13,SE,136,5.0,6.0,78,0.00,,,0.00,VWS V14.00,2013-09-15 17:58:00,
2013-09-15 14:03:00,81.4,73.9,30.13,ENE,68,2.0,6.0,78,0.00,,,0.00,VWS V14.00,2013-09-15 18:03:00,
2013-09-15 14:08:00,82.0,74.1,30.12,SSE,150,0.0,6.0,77,0.00,,,0.00,VWS V14.00,2013-09-15 18:08:00,
2013-09-15 14:13:00,82.3,74.0,30.12,ENE,60,3.0,5.0,76,0.00,,,0.00,VWS V14.00,2013-09-15 18:13:00,
2013-09-15 14:18:00,82.2,73.5,30.12,NE,36,3.0,5.0,75,0.00,,,0.00,VWS V14.00,2013-09-15 18:18:00,
2013-09-15 14:23:00,81.7,73.0,30.12,NE,46,1.0,3.0,75,0.00,,,0.00,VWS V14.00,2013-09-15 18:23:00,
2013-09-15 14:28:00,81.5,73.2,30.12,NNE,24,2.0,5.0,76,0.00,,,0.00,VWS V14.00,2013-09-15 18:28:00,
2013-09-15 14:33:00,81.2,73.3,30.12,North,355,1.0,4.0,77,0.00,,,0.00,VWS V14.00,2013-09-15 18:33:00,
2013-09-15 14:39:00,81.3,73.8,30.12,ENE,58,3.0,4.0,78,0.00,,,0.00,VWS V14.00,2013-09-15 18:39:00,
2013-09-15 14:44:00,81.4,73.1,30.11,ENE,65,2.0,4.0,76,0.00,,,0.00,VWS V14.00,2013-09-15 18:44:00,
2013-09-15 14:49:00,81.6,73.7,30.11,NE,56,1.0,4.0,77,0.00,,,0.00,VWS V14.00,2013-09-15 18:49:00,
2013-09-15 14:54:00,81.5,72.8,30.11,ENE,59,1.0,4.0,75,0.00,,,0.00,VWS V14.00,2013-09-15 18:54:00,
2013-09-15 14:59:00,81.3,73.0,30.11,East,99,1.0,4.0,76,0.00,,,0.00,VWS V14.00,2013-09-15 18:59:00,
2013-09-15 15:04:00,81.3,73.0,30.11,ENE,74,4.0,6.0,76,0.00,,,0.00,VWS V14.00,2013-09-15 19:04:00,
2013-09-15 15:09:00,81.2,72.9,30.11,North,349,2.0,6.0,76,0.00,,,0.00,VWS V14.00,2013-09-15 19:09:00,
2013-09-15 15:14:00,81.4,73.1,30.10,NE,40,1.0,3.0,76,0.00,,,0.00,VWS V14.00,2013-09-15 19:14:00,
2013-09-15 15:18:00,81.8,73.1,30.10,SSE,161,3.0,10.0,75,0.00,,,0.00,VWS V14.00,2013-09-15 19:18:00,
2013-09-15 15:23:00,81.8,73.1,30.10,NE,37,4.0,7.0,75,0.00,,,0.00,VWS V14.00,2013-09-15 19:23:00,
2013-09-15 15:28:00,81.8,73.9,30.10,SW,217,1.0,7.0,77,0.00,,,0.00,VWS V14.00,2013-09-15 19:28:00,
2013-09-15 15:33:00,82.2,73.5,30.10,ESE,120,3.0,7.0,75,0.00,,,0.00,VWS V14.00,2013-09-15 19:33:00,
2013-09-15 15:38:00,82.3,74.0,30.10,SSW,196,2.0,7.0,76,0.00,,,0.00,VWS V14.00,2013-09-15 19:38:00,
2013-09-15 15:43:00,82.4,73.3,30.09,ENE,69,1.0,6.0,74,0.00,,,0.00,VWS V14.00,2013-09-15 19:43:00,
2013-09-15 15:48:00,82.7,74.0,30.09,NW,314,2.0,6.0,75,0.00,,,0.00,VWS V14.00,2013-09-15 19:48:00,
2013-09-15 15:53:00,82.9,73.8,30.09,ESE,121,5.0,6.0,74,0.00,,,0.00,VWS V14.00,2013-09-15 19:53:00,
2013-09-15 15:59:00,82.8,73.7,30.09,SSE,161,2.0,6.0,74,0.00,,,0.00,VWS V14.00,2013-09-15 19:59:00,
2013-09-15 16:04:00,82.7,74.0,30.09,ENE,67,1.0,4.0,75,0.00,,,0.00,VWS V14.00,2013-09-15 20:04:00,
2013-09-15 16:09:00,82.3,73.2,30.09,ESE,117,2.0,5.0,74,0.00,,,0.00,VWS V14.00,2013-09-15 20:09:00,
2013-09-15 16:14:00,82.0,73.3,30.09,South,171,1.0,7.0,75,0.00,,,0.00,VWS V14.00,2013-09-15 20:14:00,
2013-09-15 16:19:00,82.2,73.9,30.09,NE,34,2.0,7.0,76,0.00,,,0.00,VWS V14.00,2013-09-15 20:19:00,
2013-09-15 16:24:00,81.9,73.6,30.09,ENE,65,2.0,6.0,76,0.00,,,0.00,VWS V14.00,2013-09-15 20:24:00,
2013-09-15 16:29:00,81.9,73.6,30.09,ENE,64,1.0,6.0,76,0.00,,,0.00,VWS V14.00,2013-09-15 20:29:00,
2013-09-15 16:34:00,81.7,73.4,30.09,South,177,0.0,7.0,76,0.00,,,0.00,VWS V14.00,2013-09-15 20:34:00,
2013-09-15 16:39:00,81.6,73.3,30.09,WSW,258,0.0,7.0,76,0.00,,,0.00,VWS V14.00,2013-09-15 20:39:00,
2013-09-15 16:44:00,81.7,73.4,30.09,South,173,2.0,4.0,76,0.00,,,0.00,VWS V14.00,2013-09-15 20:44:00,
2013-09-15 16:50:00,81.6,73.3,30.09,ENE,62,1.0,7.0,76,0.00,,,0.00,VWS V14.00,2013-09-15 20:50:00,
2013-09-15 16:55:00,81.4,73.5,30.09,SSW,196,1.0,3.0,77,0.00,,,0.00,VWS V14.00,2013-09-15 20:55:00,
2013-09-15 17:00:00,81.2,72.9,30.09,North,360,0.0,6.0,76,0.00,,,0.00,VWS V14.00,2013-09-15 21:00:00,
2013-09-15 17:05:00,80.9,73.4,30.09,South,171,2.0,3.0,78,0.00,,,0.00,VWS V14.00,2013-09-15 21:05:00,
2013-09-15 17:10:00,80.7,73.2,30.09,ENE,75,0.0,5.0,78,0.00,,,0.00,VWS V14.00,2013-09-15 21:10:00,
2013-09-15 17:15:00,80.5,73.0,30.09,South,188,0.0,6.0,78,0.00,,,0.00,VWS V14.00,2013-09-15 21:15:00,
2013-09-15 17:20:00,80.2,72.7,30.09,NNE,19,1.0,6.0,78,0.00,,,0.00,VWS V14.00,2013-09-15 21:20:00,
2013-09-15 17:25:00,80.0,72.9,30.09,WSW,257,0.0,2.0,79,0.00,,,0.00,VWS V14.00,2013-09-15 21:25:00,
2013-09-15 17:30:00,79.8,73.1,30.09,NNW,327,0.0,2.0,80,0.00,,,0.00,VWS V14.00,2013-09-15 21:30:00,
2013-09-15 17:35:00,79.6,73.3,30.09,SSE,153,4.0,5.0,81,0.00,,,0.00,VWS V14.00,2013-09-15 21:35:00,
2013-09-15 17:41:00,79.5,73.2,30.09,SE,128,0.0,5.0,81,0.00,,,0.00,VWS V14.00,2013-09-15 21:41:00,
2013-09-15 17:46:00,79.4,73.1,30.09,ESE,108,0.0,6.0,81,0.00,,,0.00,VWS V14.00,2013-09-15 21:46:00,
2013-09-15 17:51:00,79.4,73.4,30.09,SSE,165,0.0,6.0,82,0.00,,,0.00,VWS V14.00,2013-09-15 21:51:00,
2013-09-15 17:56:00,79.3,73.3,30.09,South,189,0.0,3.0,82,0.00,,,0.00,VWS V14.00,2013-09-15 21:56:00,
2013-09-15 18:01:00,79.1,73.1,30.09,East,101,2.0,3.0,82,0.00,,,0.00,VWS V14.00,2013-09-15 22:01:00,
2013-09-15 18:06:00,78.9,72.9,30.09,SE,126,3.0,5.0,82,0.00,,,0.00,VWS V14.00,2013-09-15 22:06:00,
2013-09-15 18:11:00,78.7,73.1,30.09,East,100,1.0,1.0,83,0.00,,,0.00,VWS V14.00,2013-09-15 22:11:00,
2013-09-15 18:16:00,78.5,72.9,30.09,SSE,153,0.0,4.0,83,0.00,,,0.00,VWS V14.00,2013-09-15 22:16:00,
2013-09-15 18:21:00,78.5,73.3,30.09,East,87,0.0,1.0,84,0.00,,,0.00,VWS V14.00,2013-09-15 22:21:00,
2013-09-15 18:26:00,78.3,73.1,30.09,East,86,0.0,1.0,84,0.00,,,0.00,VWS V14.00,2013-09-15 22:26:00,
2013-09-15 18:32:00,78.2,73.0,30.09,East,86,1.0,1.0,84,0.00,,,0.00,VWS V14.00,2013-09-15 22:32:00,
2013-09-15 18:37:00,78.1,73.2,30.09,SSE,165,0.0,2.0,85,0.00,,,0.00,VWS V14.00,2013-09-15 22:37:00,
2013-09-15 18:42:00,78.0,73.1,30.09,SSE,165,0.0,1.0,85,0.00,,,0.00,VWS V14.00,2013-09-15 22:42:00,
2013-09-15 18:44:00,77.9,73.0,30.09,SSE,165,0.0,1.0,85,0.00,,,0.00,VWS V14.00,2013-09-15 22:44:00,
2013-09-15 18:47:00,77.9,73.0,30.09,SSE,165,0.0,1.0,85,0.00,,,0.00,VWS V14.00,2013-09-15 22:47:00,
2013-09-15 18:52:00,77.9,73.0,30.09,SSE,165,0.0,1.0,85,0.00,,,0.00,VWS V14.00,2013-09-15 22:52:00,
2013-09-15 19:49:00,77.9,73.0,30.09,SSE,165,0.0,1.0,85,0.00,,,0.00,VWS V14.00,2013-09-15 23:49:00,
2013-09-15 19:54:00,76.0,72.5,30.09,SSE,155,0.0,0.0,89,0.00,,,0.00,VWS V14.00,2013-09-15 23:54:00,
2013-09-15 19:59:00,75.7,72.6,30.09,SSE,155,0.0,1.0,90,0.00,,,0.00,VWS V14.00,2013-09-15 23:59:00,
2013-09-15 20:04:00,75.4,72.3,30.09,SSE,155,0.0,0.0,90,0.00,,,0.00,VWS V14.00,2013-09-16 00:04:00,
2013-09-15 20:09:00,75.2,72.4,30.09,SSE,155,0.0,1.0,91,0.00,,,0.00,VWS V14.00,2013-09-16 00:09:00,
2013-09-15 20:14:00,74.9,72.1,30.09,SSE,155,0.0,0.0,91,0.00,,,0.00,VWS V14.00,2013-09-16 00:14:00,
2013-09-15 20:20:00,74.8,72.3,30.09,SSE,155,0.0,1.0,92,0.00,,,0.00,VWS V14.00,2013-09-16 00:20:00,
2013-09-15 20:25:00,74.6,72.1,30.10,SSE,155,0.0,0.0,92,0.00,,,0.00,VWS V14.00,2013-09-16 00:25:00,
2013-09-15 20:30:00,74.5,72.0,30.10,SSE,155,0.0,0.0,92,0.00,,,0.00,VWS V14.00,2013-09-16 00:30:00,
2013-09-15 20:35:00,74.4,71.9,30.09,SSE,155,0.0,0.0,92,0.00,,,0.00,VWS V14.00,2013-09-16 00:35:00,
2013-09-15 20:40:00,74.3,72.2,30.09,SSE,155,0.0,0.0,93,0.00,,,0.00,VWS V14.00,2013-09-16 00:40:00,
2013-09-15 20:45:00,74.1,71.9,30.09,SSE,155,0.0,0.0,93,0.00,,,0.00,VWS V14.00,2013-09-16 00:45:00,
2013-09-15 20:50:00,73.9,71.8,30.10,SSE,155,0.0,0.0,93,0.00,,,0.00,VWS V14.00,2013-09-16 00:50:00,
2013-09-15 20:55:00,73.8,71.7,30.10,SSE,155,0.0,0.0,93,0.00,,,0.00,VWS V14.00,2013-09-16 00:55:00,
2013-09-15 21:00:00,73.7,71.9,30.10,SSE,155,0.0,0.0,94,0.00,,,0.00,VWS V14.00,2013-09-16 01:00:00,
2013-09-15 21:05:00,73.5,71.7,30.10,SSE,155,0.0,0.0,94,0.00,,,0.00,VWS V14.00,2013-09-16 01:05:00,
2013-09-15 21:10:00,73.3,71.5,30.10,SSE,155,0.0,0.0,94,0.00,,,0.00,VWS V14.00,2013-09-16 01:10:00,
2013-09-15 21:15:00,73.1,71.3,30.09,SSE,155,0.0,0.0,94,0.00,,,0.00,VWS V14.00,2013-09-16 01:15:00,
2013-09-15 21:21:00,73.0,71.5,30.09,SSE,155,0.0,0.0,95,0.00,,,0.00,VWS V14.00,2013-09-16 01:21:00,
2013-09-15 21:26:00,73.0,71.5,30.10,SSE,155,0.0,0.0,95,0.00,,,0.00,VWS V14.00,2013-09-16 01:26:00,
2013-09-15 21:31:00,72.8,71.3,30.10,SSE,155,0.0,0.0,95,0.00,,,0.00,VWS V14.00,2013-09-16 01:31:00,
2013-09-15 21:36:00,72.6,71.1,30.10,SSE,155,0.0,0.0,95,0.00,,,0.00,VWS V14.00,2013-09-16 01:36:00,
2013-09-15 21:41:00,72.6,71.1,30.10,SSE,155,0.0,0.0,95,0.00,,,0.00,VWS V14.00,2013-09-16 01:41:00,
2013-09-15 21:46:00,72.6,71.1,30.10,SSE,155,0.0,0.0,95,0.00,,,0.00,VWS V14.00,2013-09-16 01:46:00,
2013-09-15 21:51:00,72.4,70.9,30.10,SSE,155,0.0,0.0,95,0.00,,,0.00,VWS V14.00,2013-09-16 01:51:00,
2013-09-15 21:56:00,72.2,70.7,30.10,SSE,155,0.0,0.0,95,0.00,,,0.00,VWS V14.00,2013-09-16 01:56:00,
2013-09-15 22:02:00,72.1,70.6,30.10,SSE,155,0.0,0.0,95,0.00,,,0.00,VWS V14.00,2013-09-16 02:02:00,
2013-09-15 22:07:00,72.0,70.5,30.10,SSE,155,0.0,0.0,95,0.00,,,0.00,VWS V14.00,2013-09-16 02:07:00,
2013-09-15 22:12:00,71.9,70.4,30.11,SSE,155,0.0,0.0,95,0.00,,,0.00,VWS V14.00,2013-09-16 02:12:00,
2013-09-15 22:17:00,71.8,70.6,30.11,SSE,155,0.0,0.0,96,0.00,,,0.00,VWS V14.00,2013-09-16 02:17:00,
2013-09-15 22:22:00,71.7,70.5,30.11,SSE,155,0.0,0.0,96,0.00,,,0.00,VWS V14.00,2013-09-16 02:22:00,
2013-09-15 22:27:00,71.6,70.4,30.11,SSE,155,0.0,0.0,96,0.00,,,0.00,VWS V14.00,2013-09-16 02:27:00,
2013-09-15 22:32:00,71.5,70.3,30.11,SSE,155,1.0,1.0,96,0.00,,,0.00,VWS V14.00,2013-09-16 02:32:00,
2013-09-15 22:37:00,71.4,70.2,30.11,SSE,155,0.0,1.0,96,0.00,,,0.00,VWS V14.00,2013-09-16 02:37:00,
2013-09-15 22:42:00,71.3,70.1,30.10,SSE,155,0.0,0.0,96,0.00,,,0.00,VWS V14.00,2013-09-16 02:42:00,
2013-09-15 22:47:00,71.2,70.0,30.10,SSE,155,0.0,0.0,96,0.00,,,0.00,VWS V14.00,2013-09-16 02:47:00,
2013-09-15 22:48:00,71.1,69.9,30.11,SSE,155,0.0,0.0,96,0.00,,,0.00,VWS V14.00,2013-09-16 02:48:00,
2013-09-15 22:52:00,71.1,69.9,30.11,SSE,155,0.0,0.0,96,0.00,,,0.00,VWS V14.00,2013-09-16 02:52:00,
2013-09-15 22:57:00,71.1,69.9,30.11,SSE,155,0.0,0.0,96,0.00,,,0.00,VWS V14.00,2013-09-16 02:57:00,